CW8593 Gava ES current weather conditions

sailwx.info

Wind from 171 at 2 knots gusting 6

Air temperature 20.6° C
Dewpoint 14.7° C

Last reported at 2018-May-22 11:01 UTC.
Time now 2018-May-22 11:37 UTC

Location: N 41°18' E 001°60'.
View on Google Maps.

See reports from other nearby stations

  
Tides and Currents Weather Stations Pressure Air Temp Water Temp Dewpoint Dewpoint Depression Visibility Wind Speed Wind Dir Waves Ship Positions
date/time (UTC)wind fromknots sea level pressurealtimeterstation pressurevisibilityair tempwater tempwave heightnotes
2018-May-22 11:01 171 2 gusting 6 20.6
2018-May-22 10:52 145 4 gusting 6 20.6
2018-May-22 10:43 156 5 gusting 9 20.6
2018-May-22 10:34 169 3 gusting 9 20.6
2018-May-22 10:26 102 4 gusting 11 21.1
2018-May-22 10:16 094 3 gusting 9 20.6
2018-May-22 10:07 105 1 gusting 6 21.1
2018-May-22 09:58 122 1 gusting 6 21.7
2018-May-22 09:49 100 2 gusting 6 21.1
2018-May-22 09:40 101 1 gusting 7 20.6
2018-May-22 09:31 114 2 gusting 7 21.1
2018-May-22 09:22 119 1 gusting 6 20.0
2018-May-22 09:13 081 1 gusting 5 20.0
2018-May-22 09:04 089 2 gusting 6 19.4
2018-May-22 08:55 098 2 gusting 7 19.4
2018-May-22 08:46 128 4 gusting 7 19.4
2018-May-22 08:37 110 3 gusting 8 19.4
2018-May-22 08:28 114 1 gusting 7 19.4
2018-May-22 08:19 073 1 gusting 6 19.4
2018-May-22 08:10 049 1 gusting 4 19.4
2018-May-22 08:01 045 18.9
2018-May-22 07:52 045 0 gusting 2 18.9
2018-May-22 07:43 045 0 gusting 4 18.3
2018-May-22 07:34 045 0 gusting 2 18.3
2018-May-22 07:25 033 1 gusting 3 18.3
2018-May-22 07:16 013 1 gusting 4 18.3
2018-May-22 07:07 012 1 gusting 4 18.3
2018-May-22 06:58 010 2 gusting 5 18.3
2018-May-22 06:49 006 2 gusting 4 18.3
2018-May-22 06:41 004 3 gusting 5 17.8
2018-May-22 06:31 357 3 gusting 6 17.8
2018-May-22 06:22 319 2 gusting 6 17.8
2018-May-22 06:13 003 0 gusting 5 17.8
2018-May-22 06:04 004 0 gusting 5 17.8
2018-May-22 05:55 004 1 gusting 3 17.8
2018-May-22 05:46 003 1 gusting 4 17.8
2018-May-22 05:37 331 17.8
2018-May-22 05:28 335 1 gusting 2 17.2
2018-May-22 05:19 323 3 gusting 5 17.8
2018-May-22 05:10 313 2 gusting 7 17.8
2018-May-22 05:01 321 0 gusting 7 17.8
2018-May-22 04:52 325 17.2
2018-May-22 04:43 324 16.7
2018-May-22 04:34 325 16.7
2018-May-22 04:25 16.7
2018-May-22 04:16 325 0 gusting 2 16.7
2018-May-22 04:07 324 16.7
2018-May-22 03:58 324 16.7
2018-May-22 03:49 325 16.7
2018-May-22 03:41 324 16.7
2018-May-22 03:31 16.7
2018-May-22 03:22 325 16.7
2018-May-22 03:13 16.7
2018-May-22 03:04 324 17.2
2018-May-22 02:56 16.7
2018-May-22 02:46 16.7
2018-May-22 02:37 16.7
2018-May-22 02:28 324 16.7
2018-May-22 02:19 324 16.7
2018-May-22 02:10 324 16.7
2018-May-22 02:01 324 16.7
2018-May-22 01:52 16.7
2018-May-22 01:43 324 16.7
2018-May-22 01:34 324 16.7
2018-May-22 01:26 324 16.7
2018-May-22 01:16 323 16.7
2018-May-22 01:07 324 0 gusting 3 16.7
2018-May-22 00:58 324 16.7
2018-May-22 00:49 324 16.7
2018-May-22 00:41 324 1 gusting 3 16.7
2018-May-22 00:31 324 0 gusting 3 16.7
2018-May-22 00:22 324 1 gusting 4 17.2
2018-May-22 00:13 340 0 gusting 4 18.3
2018-May-22 00:04 350 0 gusting 3 18.3
2018-May-21 23:55 004 0 gusting 4 18.3
2018-May-21 23:46 038 17.8
2018-May-21 23:37 037 18.3
2018-May-21 23:28 037 18.3
2018-May-21 23:19 038 18.3
2018-May-21 23:11 038 18.3
2018-May-21 23:01 037 0 gusting 1 18.3
2018-May-21 22:52 037 0 gusting 2 18.3
2018-May-21 22:43 037 1 gusting 1 18.9
2018-May-21 22:34 037 1 gusting 3 18.9
2018-May-21 22:25 038 1 gusting 3 18.9
2018-May-21 22:16 019 0 gusting 4 19.4
2018-May-21 22:07 297 18.9
2018-May-21 21:58 296 0 gusting 1 18.9
2018-May-21 21:49 296 18.9
2018-May-21 21:41 297 0 gusting 0 19.4
2018-May-21 21:31 299 2 gusting 6 19.4
2018-May-21 21:22 328 1 gusting 6 18.9
2018-May-21 21:13 334 0 gusting 3 18.9
2018-May-21 21:04 334 2 gusting 4 18.3
2018-May-21 20:55 341 2 gusting 5 18.3
2018-May-21 20:46 344 3 gusting 5 18.9
2018-May-21 20:37 341 2 gusting 5 18.9
2018-May-21 20:28 309 1 gusting 5 18.9
2018-May-21 20:19 291 0 gusting 5 18.3
2018-May-21 20:10 291 18.3
2018-May-21 20:01 291 0 gusting 0 18.9
2018-May-21 19:52 291 2 gusting 3 18.9
2018-May-21 19:43 264 0 gusting 4 18.9
2018-May-21 19:34 221 18.9
2018-May-21 19:25 222 18.9
2018-May-21 19:16 222 0 gusting 1 18.9
2018-May-21 19:07 222 0 gusting 3 18.9
2018-May-21 18:58 222 0 gusting 2 18.9
2018-May-21 18:49 222 0 gusting 3 19.4
2018-May-21 18:40 221 0 gusting 2 20.0
2018-May-21 18:31 222 1 gusting 4 20.0
2018-May-21 18:22 221 2 gusting 5 20.0
2018-May-21 18:13 209 2 gusting 6 20.6
2018-May-21 18:04 214 2 gusting 6 20.6
2018-May-21 17:56 223 1 gusting 5 20.6
2018-May-21 17:46 231 2 gusting 5 21.1
2018-May-21 17:37 228 2 gusting 6 21.1
2018-May-21 17:28 232 2 gusting 6 21.1
2018-May-21 17:19 213 2 gusting 6 21.7
2018-May-21 17:10 221 3 gusting 6 21.7
2018-May-21 17:01 213 3 gusting 8 21.1
2018-May-21 16:52 213 3 gusting 7 21.1
2018-May-21 16:43 205 2 gusting 6 20.6
2018-May-21 16:34 220 2 gusting 6 21.1
2018-May-21 16:25 201 1 gusting 6 21.1
2018-May-21 16:16 171 1 gusting 6 20.6
2018-May-21 16:07 184 1 gusting 5 20.6
2018-May-21 15:58 199 2 gusting 6 20.0
2018-May-21 15:49 201 2 gusting 6 20.0
2018-May-21 15:41 175 2 gusting 6 20.0
2018-May-21 15:31 177 2 gusting 4 20.0
2018-May-21 15:22 171 2 gusting 6 20.0
2018-May-21 15:13 158 2 gusting 6 20.0
2018-May-21 15:04 176 2 gusting 5 20.0
2018-May-21 14:55 178 2 gusting 6 20.0
2018-May-21 14:46 148 2 gusting 6 19.4
2018-May-21 14:37 179 3 gusting 7 20.0
2018-May-21 14:28 146 5 gusting 8 20.0
2018-May-21 14:19 134 4 gusting 9 20.0
2018-May-21 14:11 132 5 gusting 8 20.6
2018-May-21 14:01 110 5 gusting 11 19.4
2018-May-21 13:52 141 5 gusting 9 20.6
2018-May-21 13:43 151 5 gusting 9 20.6
2018-May-21 13:34 150 5 gusting 9 20.6
2018-May-21 13:25 134 5 gusting 11 20.6
2018-May-21 13:16 148 5 gusting 9 20.6
2018-May-21 13:07 118 4 gusting 11 20.6
2018-May-21 12:58 128 5 gusting 9 20.6
2018-May-21 12:49 124 4 gusting 10 20.0
2018-May-21 12:40 144 4 gusting 9 21.1
2018-May-21 12:31 149 3 gusting 9 20.6
2018-May-21 12:22 148 5 gusting 10 20.6
2018-May-21 12:13 142 6 gusting 10 19.4
2018-May-21 12:04 130 5 gusting 13 19.4
2018-May-21 11:55 121 6 gusting 13 20.0
2018-May-21 11:46 130 6 gusting 10 19.4
2018-May-21 11:37 112 6 gusting 11 20.0
2018-May-21 11:28 125 6 gusting 12 20.0
2018-May-21 11:19 123 6 gusting 12 20.0
2018-May-21 11:10 138 6 gusting 11 20.6
2018-May-21 11:01 134 6 gusting 11 20.0
2018-May-21 10:52 128 5 gusting 13 20.6
2018-May-21 10:43 134 5 gusting 11 20.6
2018-May-21 10:34 122 5 gusting 11 21.7
2018-May-21 10:25 101 4 gusting 9 20.6
2018-May-21 10:16 107 3 gusting 9 20.6
2018-May-21 10:07 115 4 gusting 9 21.1
2018-May-21 09:58 105 3 gusting 12 20.0
2018-May-21 09:49 131 3 gusting 8 21.1
2018-May-21 09:40 099 4 gusting 12 21.1
2018-May-21 09:31 102 3 gusting 12 20.0
2018-May-21 09:22 090 2 gusting 9 20.6
2018-May-21 09:13 077 0 gusting 7 20.6
2018-May-21 09:04 099 0 gusting 6 20.6
2018-May-21 08:55 085 1 gusting 4 20.6
2018-May-21 08:46 089 1 gusting 6 18.9
2018-May-21 08:37 077 1 gusting 6 18.9
2018-May-21 08:28 070 3 gusting 6 18.9
2018-May-21 08:19 104 3 gusting 6 18.9
2018-May-21 08:11 114 1 gusting 7 18.3
2018-May-21 08:01 069 3 gusting 6 18.9
2018-May-21 07:52 090 4 gusting 8 18.3
2018-May-21 07:43 098 4 gusting 9 18.3
2018-May-21 07:34 094 2 gusting 9 18.3
2018-May-21 07:25 080 4 gusting 7 18.9
2018-May-21 07:16 091 4 gusting 7 18.3
2018-May-21 07:07 080 3 gusting 6 18.3
2018-May-21 06:58 090 2 gusting 6 18.3
2018-May-21 06:49 056 1 gusting 4 18.9
2018-May-21 06:40 045 1 gusting 5 18.3
2018-May-21 06:31 348 1 gusting 5 18.3
2018-May-21 06:22 332 0 gusting 4 17.8
2018-May-21 06:13 323 1 gusting 3 17.2
2018-May-21 06:04 323 1 gusting 4 16.7
2018-May-21 05:55 321 1 gusting 3 16.7
2018-May-21 05:46 319 1 gusting 3 16.1
2018-May-21 05:37 316 1 gusting 4 16.1
2018-May-21 05:28 314 1 gusting 4 16.1
2018-May-21 05:19 314 0 gusting 3 16.1
2018-May-21 05:10 314 0 gusting 3 16.1
2018-May-21 05:01 314 0 gusting 1 16.1
2018-May-21 04:52 314 0 gusting 3 16.1
2018-May-21 04:43 314 0 gusting 3 16.1
2018-May-21 04:34 314 15.6
2018-May-21 04:25 314 15.6
2018-May-21 04:16 313 15.6
2018-May-21 04:07 15.6
2018-May-21 03:58 15.6
2018-May-21 03:49 15.6
2018-May-21 03:40 15.6
2018-May-21 03:31 15.6
2018-May-21 03:22 313 15.6
2018-May-21 03:13 314 0 gusting 0 15.6
2018-May-21 03:04 314 15.6
2018-May-21 02:55 16.1
2018-May-21 02:46 16.1
2018-May-21 02:37 314 16.1
2018-May-21 02:28 16.7
2018-May-21 02:19 16.7
2018-May-21 02:10 16.7
2018-May-21 02:01 16.7
2018-May-21 01:52 313 0 gusting 2 16.7
2018-May-21 01:43 313 0 gusting 3 16.7
2018-May-21 01:34 314 1 gusting 3 16.7
2018-May-21 01:25 314 1 gusting 4 16.7
2018-May-21 01:16 313 0 gusting 3 16.7
2018-May-21 01:07 314 2 gusting 5 16.7
2018-May-21 00:58 316 3 gusting 6 16.7
2018-May-21 00:49 311 3 gusting 6 16.7
2018-May-21 00:40 313 2 gusting 6 16.7
2018-May-21 00:31 355 1 gusting 6 16.7
2018-May-21 00:22 020 0 gusting 3 16.7
2018-May-21 00:13 020 1 gusting 3 16.7
2018-May-21 00:04 027 1 gusting 5 17.2
2018-May-20 23:55 067 1 gusting 4 17.2
2018-May-20 23:46 101 16.7
2018-May-20 23:37 100 16.7
2018-May-20 23:28 101 16.7
2018-May-20 23:19 100 16.7
2018-May-20 23:10 101 16.7
2018-May-20 23:01 100 16.7
2018-May-20 22:52 101 16.7
2018-May-20 22:43 100 16.7
2018-May-20 22:34 16.7
2018-May-20 22:25 16.7
2018-May-20 22:16 16.7
2018-May-20 22:07 101 16.7
2018-May-20 21:58 101 16.7
2018-May-20 21:49 101 16.7
2018-May-20 21:40 101 16.7
2018-May-20 21:31 101 16.7
2018-May-20 21:22 16.7
2018-May-20 21:13 101 1 gusting 3 16.7
2018-May-20 21:04 101 0 gusting 4 16.7
2018-May-20 20:55 101 0 gusting 0 17.2
2018-May-20 20:46 100 0 gusting 2 17.2
2018-May-20 20:37 101 0 gusting 1 17.8
2018-May-20 20:28 101 17.8
2018-May-20 20:19 101 0 gusting 0 17.8
2018-May-20 20:10 101 0 gusting 2 17.2
2018-May-20 20:01 101 0 gusting 2 17.8
2018-May-20 19:52 101 1 gusting 5 17.8
2018-May-20 19:43 099 2 gusting 6 17.8
2018-May-20 19:34 111 1 gusting 6 18.3
2018-May-20 19:25 111 1 gusting 3 18.3
2018-May-20 19:16 113 1 gusting 4 18.3
2018-May-20 19:07 111 2 gusting 6 18.3
2018-May-20 18:58 096 2 gusting 7 18.3
2018-May-20 18:49 098 2 gusting 6 18.9
2018-May-20 18:40 101 2 gusting 7 18.9
2018-May-20 18:31 096 4 gusting 7 18.9
2018-May-20 18:22 122 5 gusting 9 19.4
2018-May-20 18:13 128 3 gusting 9 19.4
2018-May-20 18:04 108 1 gusting 7 20.6
2018-May-20 17:55 338 1 gusting 5 21.7
2018-May-20 17:46 334 2 gusting 7 21.7
2018-May-20 17:37 357 2 gusting 6 22.2
2018-May-20 17:28 351 5 gusting 6 22.2
2018-May-20 17:19 359 6 gusting 11 21.7
2018-May-20 17:10 355 6 gusting 11 21.7
2018-May-20 17:01 001 6 gusting 15 21.7
2018-May-20 16:52 024 4 gusting 15 22.2
2018-May-20 16:43 073 2 gusting 8 22.2
2018-May-20 16:34 097 2 gusting 9 22.2
2018-May-20 16:25 095 5 gusting 9 22.2
2018-May-20 16:16 102 6 gusting 12 22.2
2018-May-20 16:07 070 6 gusting 10 22.2
2018-May-20 15:58 096 6 gusting 13 22.2
2018-May-20 15:49 099 5 gusting 13 22.2
2018-May-20 15:40 090 5 gusting 10 22.2
2018-May-20 15:31 076 6 gusting 13 22.2
2018-May-20 15:22 090 6 gusting 11 22.2
2018-May-20 15:13 097 6 gusting 10 21.7
2018-May-20 15:04 077 6 gusting 13 22.2
2018-May-20 14:55 073 3 gusting 11 22.2
2018-May-20 14:46 068 2 gusting 9 22.2
2018-May-20 14:37 056 5 gusting 6 22.2
2018-May-20 14:28 082 5 gusting 11 21.7
2018-May-20 14:19 098 4 gusting 12 22.2
2018-May-20 14:10 090 3 gusting 12 22.2
2018-May-20 14:01 077 4 gusting 9 22.2
2018-May-20 13:52 103 2 gusting 11 21.7
2018-May-20 13:43 125 2 gusting 8 21.7
2018-May-20 13:34 118 3 gusting 8 21.7
2018-May-20 13:25 129 3 gusting 9 21.1
2018-May-20 13:16 117 3 gusting 12 21.1
2018-May-20 13:07 146 4 gusting 9 21.7
2018-May-20 12:58 128 6 gusting 11 20.6
2018-May-20 12:49 129 6 gusting 11 21.1
2018-May-20 12:40 123 5 gusting 13 21.1
2018-May-20 12:31 170 4 gusting 13 21.7
2018-May-20 12:22 188 5 gusting 9 21.1
2018-May-20 12:13 156 6 gusting 11 20.6
2018-May-20 12:04 142 6 gusting 12 21.1
2018-May-20 11:55 164 5 gusting 9 21.7
2018-May-20 11:46 156 3 gusting 9 22.2
2018-May-20 11:37 148 4 gusting 9 22.2
2018-May-20 11:28 139 4 gusting 8 22.2
2018-May-20 11:19 161 4 gusting 8 21.7
2018-May-20 11:10 185 4 gusting 8 21.7
2018-May-20 11:01 187 4 gusting 7 21.7